Zurück zum Katalog

STARLINK-36046

AktivKommunikationVLEO
NORAD 66810·PAYLOAD·🇺🇸 United States

Gestartet Dec 1, 2025 von Cape Canaveral Space Force Station

Loading…

Nächste Überflüge (nächste 24 Stunden)

TLE

AktuellSource: CelesTrak SupGP

Epoche: Sep 15, 2026, 03:22 UTC

1 66810C 25278V   26258.14076389  .00053351  00000+0  19326-2 0  2583
2 66810  43.0025 124.6080 0001603 277.3193   0.0308 15.27548751    17

Verfolge STARLINK-36046 in Echtzeit mit AllMySat

Download on the App Store